• MPC Preparation (Info)

  • MPEC 2024-H48 : 2024 GP7

    The following Minor Planet Electronic Circular may be linked-to from your own Web pages, but must not otherwise be redistributed electronically.

    A form allowing access to any MPEC is at the bottom of this page.


    Read MPEC 2024-H47 Read MPEC 2024-H49


    M.P.E.C. 2024-H48                                Issued 2024 April 20, 18:28 UT
    
         The Minor Planet Electronic Circulars contain information on unusual
             minor planets, routine data on comets and natural satellites,
             and occasional editorial announcements.  They are published
        on behalf of Division F of the International Astronomical Union by the
              Minor Planet Center, Smithsonian Astrophysical Observatory,
                              Cambridge, MA 02138, U.S.A.
    			  
                 Prepared using the Tamkin Foundation Computer Network
    
                                  MPC@CFA.HARVARD.EDU
                URL https://www.minorplanetcenter.net/    ISSN 1523-6714
    
                                    2024 GP7                                 
    
    
    Observations:
         K24G07P* C2024 04 01.31134710 25 13.747+00 28 33.55         21.84wXEH048F51
         K24G07P  C2024 04 01.32261210 25 15.707+00 28 26.51         21.81wXEH048F51
         K24G07P  C2024 04 01.33389910 25 17.640+00 28 19.45         21.97wXEH048F51
         K24G07P  C2024 04 01.41145310 25 31.227+00 27 30.16         22.09GVEH048F51
         K24G07P  C2024 04 01.41209410 25 31.319+00 27 29.36         21.90GVEH048F51
         K24G07P  C2024 04 02.40141110 29 57.923+00 16 25.61         21.50GVEH048F51
         K24G07P 1C2024 04 20.26442614 50 46.900-08 42 03.78         20.05GVEH048G96
         K24G07P 1C2024 04 20.26960614 50 53.966-08 42 14.11         19.66GVEH048G96
         K24G07P 1C2024 04 20.27479314 51 00.983-08 42 23.83               VEH048G96
         K24G07P 1C2024 04 20.27998514 51 08.057-08 42 33.95         20.19GVEH048G96
         K24G07P mC2024 04 20.36211114 52 58.530-08 45 04.21         19.60GVEH048I52
         K24G07P mC2024 04 20.36247814 52 59.038-08 45 04.50         19.57GVEH048I52
         K24G07P mC2024 04 20.36284414 52 59.531-08 45 05.51         19.48GVEH048I52
         K24G07P mC2024 04 20.36321114 53 00.006-08 45 06.23         20.07GVEH048I52
    
    Observer details:
    F51 Pan-STARRS 1, Haleakala.  Observers J. Herman, T. Lowe, P. Minguez, A.
        Schultz, I. Smith.  Measurers K. Chambers, T. de Boer, J. Fairlamb, H.
        Gao, M. Huber, C.-C. Lin, E. Magnier, Y. Ramanjooloo, R. Wainscoat, R.
        Weryk.  1.8-m Ritchey-Chretien + CCD.
    G96 Mt. Lemmon Survey.  Observer J. B. Fazekas.  Measurers T. Beuden, V. F.
        Carvajal, D. Fay, J. B. Fazekas, D. C. Fuls, A. R. Gibbs, A. D. Grauer, H.
        Groeller, J. K. Hogan, R. A. Kowalski, S. M. Larson, G. J. Leonard, D.
        Rankin, R. L. Seaman, F. C. Shelly, K. W. Wierzchos.  1.5-m reflector +
        10K CCD.
    I52 Steward Observatory, Mt. Lemmon Station.  Observer D. C. Fuls.  Measurers
        T. Beuden, V. F. Carvajal, D. Fay, J. B. Fazekas, D. C. Fuls, A. R. Gibbs,
        A. D. Grauer, H. Groeller, J. K. Hogan, R. A. Kowalski, S. M. Larson, G.
        J. Leonard, D. Rankin, R. L. Seaman, F. C. Shelly, K. W. Wierzchos.  1.0-m
        prime focus + CCD.
    
    Orbital elements:
    2024 GP7                                                 Earth MOID = 0.0185 AU
    Epoch 2024 Mar. 31.0 TT = JDT 2460400.5                 Bell                    
    M 348.51415              (2000.0)            P               Q                  
    n   0.60032305     Peri.    4.34185     -0.87168933     +0.48994445             
    a   1.3917013      Node   205.00377     -0.45037135     -0.80942718             
    e   0.2647063      Incl.    1.43564     -0.19319251     -0.32370061             
    P   1.64           H   27.64          G   0.15           U   8                  
    Residuals in seconds of arc
    240401 F51  0.0   0.1-    240402 F51  0.0   0.1+    240420 I52  0.1-  0.0
    240401 F51  0.2+  0.0     240420 G96  0.1+  0.1+    240420 I52  0.1+  0.3+
    240401 F51  0.1+  0.0     240420 G96  0.1+  0.1-    240420 I52  0.2+  0.1-
    240401 F51  0.0   0.1+    240420 G96  0.4-  0.3+    240420 I52  0.1-  0.2-
    240401 F51  0.4-  0.3-    240420 G96  0.1-  0.3+
    
    Ephemeris:
    2024 GP7                 a,e,i = 1.39, 0.26, 1                   q = 1.0233
    Date    TT    R. A. (2000) Decl.     Delta      r    Elong.  Phase     V
    2024 03 21    09 58 19.3 +01 39 48   0.06683 1.0540   149.0    29.1    23.2
    ...
    2024 04 05    10 44 19.8 -00 17 34   0.03610 1.0307   146.5    32.4    21.9
    ...
    2024 04 13    12 09 06.7 -03 41 49   0.02332 1.0247   160.2    19.4    20.5
    ...
    2024 04 19    14 18 36.3 -07 54 26   0.01903 1.0232   171.8     8.0    19.7
    2024 04 20    14 43 53.6 -08 29 01   0.01907 1.0232   166.9    12.9    19.8
    2024 04 21    15 08 49.1 -08 57 17   0.01934 1.0233   161.8    17.9    20.1
    ...
    2024 04 27    17 07 38.3 -09 46 04   0.02494 1.0253   138.4    40.7    21.3
    ...
    2024 05 05    18 22 45.6 -09 04 32   0.03781 1.0320   127.5    50.9    22.5
    ...
    2024 05 20    19 04 44.6 -08 45 03   0.06591 1.0564   131.2    46.1    23.6
    
    M. P. C. Staff               (C) Copyright 2024 MPC           M.P.E.C. 2024-H48
    


    Read MPEC 2024-H47 Read MPEC 2024-H49


    MPEC number:

    Enter an MPEC number in one of the following forms:

    • 1997-B01 (the full form)
    • J97B01 (the packed version of the full form)
    • B01 (the abbreviated form)